Simultaneous Nadir Overpasses (SNOs) Predictions

Prediction of SNOs between GOES-17 and NOAA-20 Satellite Orbit:

Table of predicted SNOs for the next 14.0 days since TLE Epoch: 10/22/2022
Index Date Time (GOES-17) GOES-17 Lat,Lon NOAA-20 Lat,Lon Distance(km) Time Diff (sec)
1 10/22/2022 22:34:02 -0.04,-137.33 -0.10,-137.63 33.38 80
2 10/23/2022 22:17:58 -0.04,-137.33 0.93,-133.10 482.72 80
3 10/25/2022 10:37:04 0.04,-137.31 0.30,-138.35 119.21 80
4 10/26/2022 10:20:59 0.04,-137.30 -0.74,-133.83 396.32 80
5 10/27/2022 22:40:16 -0.04,-137.29 -0.44,-139.13 210.25 80
6 10/28/2022 22:24:10 -0.04,-137.27 0.54,-134.59 304.57 80
7 10/30/2022 10:43:18 0.03,-137.24 0.63,-139.86 299.30 80
8 10/31/2022 10:27:13 0.03,-137.22 -0.41,-135.34 214.93 80
9 11/01/2022 22:46:28 -0.02,-137.18 -0.81,-140.63 393.20 80
10 11/02/2022 22:30:24 -0.02,-137.16 0.24,-136.11 121.00 80
11 11/04/2022 10:49:30 0.02,-137.13 0.99,-141.36 483.23 80
